(47047) = 1998 WX12 = 2000 CL34

Discovered at Socorro on 1998-11-21 by LINEAR.

Orbit

Orbit type: Main Belt

Note: WebGL enabled browser required.

epoch2024-03-31.0
epoch JD2460400.5
perihelion date2021-06-29.38666
perihelion JD2459394.88666
argument of perihelion (°)62.00213
ascending node (°)317.95246
inclination (°)3.75365
eccentricity0.1047345
perihelion distance (AU)2.4766857
Tisserand w.r.t. Jupiter3.3
ΔV w.r.t. Earth (km/sec)9.9
semimajor axis (AU)2.7664258
mean anomaly (°)215.40527
mean daily motion (°/day)0.21420290
aphelion distance (AU)3.056
period (years)4.6
P-vector [x]0.93869473
P-vector [y]0.28883014
P-vector [z]0.18822687
Q-vector [x]-0.34194989
Q-vector [y]0.84948867
Q-vector [z]0.40179506
absolute magnitude14.16
phase slope0.15
uncertainty0
referenceMPEC 2024-F74
observations used2222
oppositions20
arc length (days)9263
first opposition used1998
last opposition used2024
residual rms (arc-secs)0.60
perturbers coarse indicatorM-v
perturbers precise indicator003Ek
first observation date used1998-11-10.0
last observation date used2024-03-21.0
computer nameMPCLINUX
JD of orbit computation2456937.255887
perihelion JD uncertainty (days)9.8385E-05
argument of perihelion uncertainty (°)6.6033E-05
ascending node uncertainty (°)6.3227E-05
inclination uncertainty (°)4.2405E-06
eccentricity uncertainty 4.5443E-08
perihelion distance uncertainty (AU)1.2718E-07
Minimum Orbit Intersection Distances (in AU)
for orbit epoch: 2460400.5, reference: E2024-G77
Mercury2.13399
Venus1.75741
Earth1.48155
Mars1.04051
Jupiter2.41293
Saturn6.30716
Uranus15.4311
Neptune27.3405

Observations

2221 total observations over interval: 1998 11 10.34819 – 2024 03 21.336722
These data are available for download (format description).

Date (UT) J2000 RA J2000 Dec Magn Location Ref
1998 11 10.34819 03 44 35.38 +26 03 21.2 17.1   704 – Lincoln Laboratory ETS, New Mexico MPS 3195
1998 11 10.36720 03 44 34.34 +26 03 18.7 17.8   704 – Lincoln Laboratory ETS, New Mexico MPS 3195
1998 11 10.38626 03 44 33.26 +26 03 16.0 18.7   704 – Lincoln Laboratory ETS, New Mexico MPS 3195
1998 11 11.29239 03 43 41.77 +26 00 53.2 16.7   704 – Lincoln Laboratory ETS, New Mexico MPS 3195
1998 11 11.31425 03 43 40.45 +26 00 49.0 16.7   704 – Lincoln Laboratory ETS, New Mexico MPS 3195
1998 11 11.33599 03 43 39.16 +26 00 46.0 17.0   704 – Lincoln Laboratory ETS, New Mexico MPS 3195
1998 11 11.35772 03 43 37.90 +26 00 42.2 17.8   704 – Lincoln Laboratory ETS, New Mexico MPS 3196
1998 11 18.25189 03 36 55.27 +25 39 30.8 17.8   704 – Lincoln Laboratory ETS, New Mexico MPS 9915
1998 11 18.29653 03 36 52.55 +25 39 21.7 17.8   704 – Lincoln Laboratory ETS, New Mexico MPS 9915
1998 11 18.34100 03 36 49.73 +25 39 12.9 18.0   704 – Lincoln Laboratory ETS, New Mexico MPS 9915
1998 11 18.38576 03 36 47.00 +25 39 02.8 18.0   704 – Lincoln Laboratory ETS, New Mexico MPS 9915
1998 11 18.43049 03 36 44.35 +25 38 51.9 18.8   704 – Lincoln Laboratory ETS, New Mexico MPS 9915
1998 11 21.24888 03 33 59.10 +25 28 48.2 17.1   704 – Lincoln Laboratory ETS, New Mexico MPS 3196
1998 11 21.28685 03 33 56.79 +25 28 39.6 17.5   704 – Lincoln Laboratory ETS, New Mexico MPS 3196
1998 11 21.32430 03 33 54.60 +25 28 31.2 17.7   704 – Lincoln Laboratory ETS, New Mexico MPS 3196
1998 11 21.36146 03 33 52.32 +25 28 22.2 18.2   704 – Lincoln Laboratory ETS, New Mexico MPS 3196
1998 11 21.39886 03 33 50.12 +25 28 13.6 18.2   704 – Lincoln Laboratory ETS, New Mexico MPS 3196
1998 11 24.17449 03 31 09.81 +25 17 38.2 17.5   704 – Lincoln Laboratory ETS, New Mexico MPS 3196
1998 11 24.22286 03 31 06.90 +25 17 26.4 18.6   704 – Lincoln Laboratory ETS, New Mexico MPS 3196
1998 11 24.27055 03 31 04.18 +25 17 17.2 18.0   704 – Lincoln Laboratory ETS, New Mexico MPS 3196
1998 11 24.31907 03 31 01.11 +25 17 07.7 18.6   704 – Lincoln Laboratory ETS, New Mexico MPS 3196
1998 11 24.36650 03 30 58.44 +25 16 54.7 19.3   704 – Lincoln Laboratory ETS, New Mexico MPS 3196
1998 12 14.11071 03 15 23.36 +23 55 01.7 18.0   704 – Lincoln Laboratory ETS, New Mexico MPS 9915
1998 12 14.13251 03 15 22.55 +23 54 57.3 19.0   704 – Lincoln Laboratory ETS, New Mexico MPS 9915
1998 12 14.15485 03 15 21.79 +23 54 52.8 19.0   704 – Lincoln Laboratory ETS, New Mexico MPS 9915
1998 12 14.17668 03 15 21.00 +23 54 47.4 19.1   704 – Lincoln Laboratory ETS, New Mexico MPS 9915
1998 12 14.19852 03 15 20.15 +23 54 42.7 19.1   704 – Lincoln Laboratory ETS, New Mexico MPS 9915
1999 01 15.15360 03 12 14.53 +22 33 37.6 18.7 R 699 – Lowell Observatory-LONEOS MPS 9915
1999 01 15.16885 03 12 14.78 +22 33 36.3   699 – Lowell Observatory-LONEOS MPS 9915
1999 01 15.18411 03 12 15.09 +22 33 36.0   699 – Lowell Observatory-LONEOS MPS 9915
1999 01 22.16013 03 15 26.92 +22 30 31.3 18.5 R 699 – Lowell Observatory-LONEOS MPS 58707
1999 01 22.18557 03 15 27.70 +22 30 31.6   699 – Lowell Observatory-LONEOS MPS 58707
1999 01 22.21104 03 15 28.61 +22 30 30.4   699 – Lowell Observatory-LONEOS MPS 58707
2000 02 02.39021 10 57 16.51 +05 09 04.9 18.5   704 – Lincoln Laboratory ETS, New Mexico MPS 11023
2000 02 02.41575 10 57 15.59 +05 09 08.4 18.8   704 – Lincoln Laboratory ETS, New Mexico MPS 11024
2000 02 02.44571 10 57 14.42 +05 09 12.8 19.5   704 – Lincoln Laboratory ETS, New Mexico MPS 11024
2000 02 02.46037 10 57 13.79 +05 09 15.5 19.3   704 – Lincoln Laboratory ETS, New Mexico MPS 11024
2000 02 02.47476 10 57 13.28 +05 09 16.1 19.3   704 – Lincoln Laboratory ETS, New Mexico MPS 11024
2000 02 05.03025 10 55 35.94 +05 15 41.7 19.2   120 – Visnjan MPS 10358
2000 02 05.05454 10 55 34.98 +05 15 45.2   120 – Visnjan MPS 10358
2000 02 06.05734 10 54 54.71 +05 18 29.5 19.2   120 – Visnjan MPS 10358
2000 02 06.07605 10 54 54.15 +05 18 32.1   120 – Visnjan MPS 10358
2000 02 06.38737 10 54 41.30 +05 19 26.2 18.4   704 – Lincoln Laboratory ETS, New Mexico MPS 10358
2000 02 06.40220 10 54 40.69 +05 19 27.9 19.1   704 – Lincoln Laboratory ETS, New Mexico MPS 10358
2000 02 06.41691 10 54 40.04 +05 19 31.1 19.2   704 – Lincoln Laboratory ETS, New Mexico MPS 10358
2000 02 06.44632 10 54 38.77 +05 19 35.8 19.9   704 – Lincoln Laboratory ETS, New Mexico MPS 10358
2000 02 23.88925 10 40 47.62 +06 21 15.8 18.6   120 – Visnjan MPS 11024
2000 02 23.91218 10 40 46.37 +06 21 21.3   120 – Visnjan MPS 11024
2000 02 23.93301 10 40 45.25 +06 21 26.3   120 – Visnjan MPS 11024
2000 02 24.83998 10 39 58.28 +06 25 05.7 18.7   120 – Visnjan MPS 11024
2000 02 24.86703 10 39 56.91 +06 25 12.2   120 – Visnjan MPS 11024
2000 02 29.24827 10 36 08.32 +06 43 08.9 17.7   704 – Lincoln Laboratory ETS, New Mexico MPS 11024
2000 02 29.26162 10 36 07.60 +06 43 12.4 17.6   704 – Lincoln Laboratory ETS, New Mexico MPS 11024
2000 02 29.27497 10 36 06.90 +06 43 15.7 18.0   704 – Lincoln Laboratory ETS, New Mexico MPS 11024
2000 02 29.28831 10 36 06.18 +06 43 19.1 17.6   704 – Lincoln Laboratory ETS, New Mexico MPS 11024
2000 02 29.30167 10 36 05.45 +06 43 22.3 18.0   704 – Lincoln Laboratory ETS, New Mexico MPS 11024
2000 03 03.25373 10 33 32.53 +06 55 28.0 17.7   704 – Lincoln Laboratory ETS, New Mexico MPS 11024
2000 03 03.27019 10 33 31.64 +06 55 32.0 17.3   704 – Lincoln Laboratory ETS, New Mexico MPS 11024
2000 03 03.28341 10 33 30.94 +06 55 35.6 17.4   704 – Lincoln Laboratory ETS, New Mexico MPS 11024
2000 03 03.29663 10 33 30.25 +06 55 38.9 17.6   704 – Lincoln Laboratory ETS, New Mexico MPS 11024
2000 03 03.30984 10 33 29.54 +06 55 42.0 17.4   704 – Lincoln Laboratory ETS, New Mexico MPS 11024
2000 03 10.61750 10 27 24.63 +07 24 50.5 18.3   327 – Peking Observatory, Xinglong Station MPS 20758
2000 03 10.62719 10 27 24.15 +07 24 52.1   327 – Peking Observatory, Xinglong Station MPS 20758
2000 03 10.63700 10 27 23.59 +07 24 53.5   327 – Peking Observatory, Xinglong Station MPS 20758
2000 03 11.18118 10 26 57.82 +07 27 00.4 18.2   704 – Lincoln Laboratory ETS, New Mexico MPS 11024
2000 03 11.19366 10 26 57.21 +07 27 02.8 18.5   704 – Lincoln Laboratory ETS, New Mexico MPS 11024
2000 03 11.20615 10 26 56.59 +07 27 05.3 18.2   704 – Lincoln Laboratory ETS, New Mexico MPS 11024
2000 03 11.21686 10 26 56.08 +07 27 07.9 17.4 R 699 – Lowell Observatory-LONEOS MPS 11024
2000 03 11.21864 10 26 55.98 +07 27 08.7 17.9   704 – Lincoln Laboratory ETS, New Mexico MPS 11024
2000 03 11.23354 10 26 55.25 +07 27 12.1 18.3   704 – Lincoln Laboratory ETS, New Mexico MPS 11024
2000 03 11.24046 10 26 54.96 +07 27 13.7   699 – Lowell Observatory-LONEOS MPS 11024
2000 03 11.26403 10 26 53.81 +07 27 19.5   699 – Lowell Observatory-LONEOS MPS 11024
2000 03 11.28766 10 26 52.61 +07 27 24.0   699 – Lowell Observatory-LONEOS MPS 11024
2000 03 12.66712 10 25 47.76 +07 32 35.2   327 – Peking Observatory, Xinglong Station MPS 20758
2000 03 12.69160 10 25 46.58 +07 32 40.5   327 – Peking Observatory, Xinglong Station MPS 20758
2000 03 12.73737 10 25 44.41 +07 32 50.6 18.6   327 – Peking Observatory, Xinglong Station MPS 20758
2000 04 04.13649 10 12 43.96 +08 35 44.8 18.2 R 699 – Lowell Observatory-LONEOS MPS 11918
2000 04 04.15227 10 12 43.59 +08 35 46.8   699 – Lowell Observatory-LONEOS MPS 11918
2000 04 04.16805 10 12 43.26 +08 35 47.0   699 – Lowell Observatory-LONEOS MPS 11918
2000 04 04.18378 10 12 42.94 +08 35 49.6   699 – Lowell Observatory-LONEOS MPS 11918
2001 04 30.34852 15 51 43.81 -25 48 15.9 18.1   704 – Lincoln Laboratory ETS, New Mexico MPS 29915
2001 04 30.36160 15 51 43.23 -25 48 16.0 18.3   704 – Lincoln Laboratory ETS, New Mexico MPS 29915
2001 04 30.37520 15 51 42.48 -25 48 15.1 18.2   704 – Lincoln Laboratory ETS, New Mexico MPS 29915
2001 05 17.27815 15 36 52.32 -25 09 01.8 18.4   704 – Lincoln Laboratory ETS, New Mexico MPS 30740
2001 05 17.28965 15 36 51.68 -25 08 58.4 18.0   704 – Lincoln Laboratory ETS, New Mexico MPS 30740
2001 05 17.30114 15 36 51.05 -25 08 55.3 18.4   704 – Lincoln Laboratory ETS, New Mexico MPS 30740
2001 05 17.31263 15 36 50.35 -25 08 54.1 18.5   704 – Lincoln Laboratory ETS, New Mexico MPS 30740
